Weather observations for the past three days for
Barter Island, Barter Island LRRS Airport
| Date | Time (akdt) | Wind (mph) | Vis. (mi.) | Weather | Sky Cond. | Temperature (ºF) | Relative Humidity | Wind Chill (°F) | Heat Index (°F) | Pressure | Precipitation (in) | ||||||
|---|---|---|---|---|---|---|---|---|---|---|---|---|---|---|---|---|---|
| Air | Dwpt | 6 hour | altimeter (in) | sea level (mb) | 1 hr | 3 hr | 6 hr | ||||||||||
| Max. | Min. | ||||||||||||||||
| 10 | 07:56 | NE 21 | 10.00 | Light Snow and Breezy | CLR | 10 | 6.1 | 84% | -8 | 29.91 | 1014.8 | ||||||
| 10 | 06:56 | NE 22 | 9.00 | Light Snow and Breezy | FEW008 OVC060 | 12 | 9 | 87% | -6 | 29.91 | 1014.6 | ||||||
| 10 | 05:56 | E 21 | 10.00 | Overcast and Breezy | OVC009 | 12 | 8.1 | 84% | -5 | 29.91 | 1014.6 | ||||||
| 10 | 04:56 | NE 22 | 10.00 | Overcast and Breezy | OVC009 | 12 | 9 | 87% | -6 | 29.91 | 1014.7 | ||||||
| 10 | 03:56 | E 23 | 10.00 | Overcast and Breezy | SCT009 OVC050 | 12.9 | 10 | 19.9 | 12.9 | 88% | -5 | 29.9 | 1014.2 | ||||
| 10 | 02:56 | NE 24 | 10.00 | Overcast and Breezy | SCT008 OVC055 | 14 | 10.9 | 88% | -4 | 29.91 | 1014.6 | ||||||
| 10 | 01:56 | E 24 | 10.00 | Overcast and Breezy | FEW008 OVC050 | 16 | 12.9 | 88% | -1 | 29.9 | 1014.3 | ||||||
| 10 | 00:56 | NE 23 | 10.00 | Overcast and Breezy | OVC008 | 17.1 | 14 | 88% | 0 | 29.9 | 1014.4 | ||||||
| 09 | 23:56 | E 23 | 10.00 | Overcast and Breezy | OVC008 | 18 | 15.1 | 88% | 2 | 29.9 | 1014.4 | ||||||
| 09 | 22:56 | E 24 | 10.00 | Overcast and Breezy | BKN008 OVC039 | 19 | 16 | 88% | 3 | 29.9 | 1014.3 | ||||||
| 09 | 21:56 | E 22 | 10.00 | Overcast and Breezy | OVC008 | 19.9 | 17.1 | 24.1 | 19.9 | 89% | 5 | 29.9 | 1014.5 | ||||
| 09 | 20:56 | E 24 | 10.00 | Overcast and Breezy | BKN008 OVC023 | 21 | 18 | 88% | 5 | 29.9 | 1014.5 | ||||||
| 09 | 19:56 | E 25 | 10.00 | Overcast and Breezy | OVC010 | 21.9 | 19 | 89% | 6 | 29.9 | 1014.5 | ||||||
| 09 | 18:56 | E 28 | 10.00 | Overcast and Windy | OVC006 | 24.1 | 21 | 88% | 8 | 29.9 | 1014.3 | ||||||
| 09 | 16:56 | E 24 | 10.00 | Overcast and Breezy | OVC006 | 24.1 | 21 | 88% | 9 | 29.91 | 1014.8 | ||||||
| 09 | 15:56 | E 26 | 10.00 | Overcast and Windy | OVC008 | 24.1 | 21 | 24.1 | 21 | 88% | 9 | 29.92 | 1015.0 | ||||
| 09 | 14:56 | E 24 | 10.00 | Overcast and Breezy | OVC008 | 24.1 | 19.9 | 84% | 9 | 29.93 | 1015.3 | ||||||
| 09 | 13:56 | E 24 | 10.00 | Overcast and Breezy | OVC008 | 24.1 | 19.9 | 84% | 9 | 29.94 | 1015.8 | ||||||
| 09 | 12:56 | E 23 | 10.00 | Overcast and Breezy | OVC008 | 23 | 19 | 85% | 8 | 29.95 | 1016.0 | ||||||
| 09 | 11:56 | NE 22 | 10.00 | Overcast and Breezy | OVC010 | 23 | 19 | 85% | 9 | 29.96 | 1016.3 | ||||||
| 09 | 10:56 | E 22 | 10.00 | Overcast and Breezy | OVC010 | 21.9 | 18 | 85% | 7 | 29.97 | 1016.7 | ||||||
| 09 | 09:56 | E 22 | 10.00 | Overcast and Breezy | OVC008 | 21 | 18 | 21 | 18 | 88% | 6 | 29.97 | 1016.8 | ||||
| 09 | 08:56 | E 24 | 6.00 | Fog/Mist and Breezy | OVC006 | 21 | 18 | 88% | 5 | 29.98 | 1017.0 | ||||||
| 09 | 07:56 | E 18 | 4.00 | Light Snow Fog/Mist | OVC006 | 19.9 | 17.1 | 89% | 6 | 29.99 | 1017.3 | ||||||
| 09 | 06:56 | E 20 | 10.00 | Overcast | OVC008 | 19 | 16 | 88% | 4 | 30 | 1017.7 | ||||||
| 09 | 05:56 | E 18 | 10.00 | Overcast | BKN010 OVC037 | 18 | 16 | 92% | 3 | 30 | 1017.8 | ||||||
| 09 | 04:56 | E 22 | 0.75 | Light Snow Fog/Mist and Breezy | OVC004 | 19 | 18 | 96% | 3 | 30.01 | 1017.9 | ||||||
| 09 | 03:56 | E 18 | 5.00 | Fog/Mist | OVC004 | 19.9 | 18 | 19.9 | 19 | 92% | 6 | 30.01 | 1018.2 | ||||
| 09 | 02:56 | NE 15 | 8.00 | Overcast | OVC006 | 19 | 18 | 96% | 6 | 30.03 | 1018.7 | ||||||
| 09 | 01:56 | E 14 | 7.00 | Overcast | SCT008 OVC024 | 19 | 18 | 96% | 6 | 30.04 | 1019.0 | ||||||
| 09 | 00:56 | E 13 | 5.00 | Fog/Mist | BKN004 OVC014 | 19 | 18 | 96% | 7 | 30.05 | 1019.3 | ||||||
| 08 | 23:56 | E 12 | 7.00 | Overcast | BKN007 OVC012 | 19.9 | 18 | 92% | 9 | 30.05 | 1019.6 | ||||||
| 08 | 22:56 | E 12 | 4.00 | Fog/Mist | OVC007 | 19.9 | 17.1 | 89% | 9 | 30.06 | 1019.7 | ||||||
| 08 | 21:56 | E 9 | 10.00 | Overcast | OVC009 | 19.9 | 16 | 24.1 | 19 | 85% | 10 | 30.06 | 1019.9 | ||||
| 08 | 20:56 | E 12 | 10.00 | Overcast | OVC009 | 19.9 | 16 | 85% | 9 | 30.07 | 1020.0 | ||||||
| 08 | 19:56 | E 10 | 10.00 | Overcast | OVC011 | 19.9 | 15.1 | 81% | 9 | 30.08 | 1020.5 | ||||||
| 08 | 18:56 | E 10 | 10.00 | Overcast | OVC011 | 21 | 16 | 81% | 11 | 30.09 | 1020.7 | ||||||
| 08 | 17:56 | E 8 | 10.00 | Overcast | OVC011 | 21.9 | 15.1 | 75% | 13 | 30.09 | 1020.8 | ||||||
| 08 | 16:56 | E 5 | 10.00 | Overcast | OVC011 | 23 | 16 | 74% | 18 | 30.1 | 1021.1 | ||||||
| 08 | 15:56 | E 7 | 9.00 | Overcast | OVC011 | 25 | 16 | 30 | 21.9 | 69% | 18 | 30.11 | 1021.5 | ||||
| 08 | 14:56 | NE 3 | 9.00 | Light Snow | OVC011 | 27 | 16 | 63% | 30.12 | 1021.8 | |||||||
| 08 | 13:56 | Calm | 9.00 | Light Snow | OVC011 | 28 | 16 | 60% | 30.13 | 1022.1 | |||||||
| 08 | 12:56 | Calm | 10.00 | Unknown Precip | OVC013 | 28.9 | 17.1 | 61% | 30.14 | 1022.4 | |||||||
| 08 | 11:56 | Calm | 9.00 | Light Snow | OVC013 | 26.1 | 17.1 | 69% | 30.15 | 1022.8 | |||||||
| 08 | 10:56 | SW 3 | 9.00 | Light Snow | OVC013 | 21.9 | 16 | 78% | 30.15 | 1022.8 | |||||||
| 08 | 09:56 | SW 5 | 9.00 | Light Snow | BKN010 OVC013 | 21 | 17.1 | 21 | 18 | 85% | 15 | 30.16 | 1023.1 | ||||
| 08 | 08:56 | SW 6 | 6.00 | Light Snow Fog/Mist | FEW005 SCT010 OVC014 | 19.9 | 17.1 | 89% | 13 | 30.16 | 1023.3 | ||||||
| 08 | 07:56 | W 7 | 6.00 | Light Snow Fog/Mist | FEW005 OVC012 | 19 | 16 | 88% | 11 | 30.17 | 1023.6 | ||||||
| 08 | 06:56 | SW 8 | 10.00 | Overcast | OVC014 | 18 | 16 | 92% | 9 | 30.18 | 1023.9 | ||||||
| 08 | 05:56 | W 9 | 7.00 | Overcast | OVC009 | 18 | 16 | 92% | 8 | 30.19 | 1024.2 | ||||||
| 08 | 04:56 | W 8 | 10.00 | Overcast | OVC009 | 18 | 16 | 92% | 9 | 30.2 | 1024.4 | ||||||
| 08 | 03:56 | SW 7 | 10.00 | Overcast | OVC009 | 18 | 16 | 19 | 17.1 | 92% | 10 | 30.2 | 1024.6 | ||||
| 08 | 02:56 | SW 9 | 10.00 | Overcast | OVC011 | 18 | 15.1 | 88% | 8 | 30.21 | 1024.8 | ||||||
| 08 | 01:56 | SW 8 | 10.00 | Overcast | OVC011 | 18 | 16 | 92% | 9 | 30.21 | 1024.7 | ||||||
| 08 | 00:56 | SW 9 | 10.00 | Overcast | OVC011 | 19 | 16 | 88% | 9 | 30.2 | 1024.7 | ||||||
| 07 | 23:56 | SW 10 | 10.00 | Overcast | OVC011 | 18 | 16 | 92% | 7 | 30.21 | 1024.8 | ||||||
| 07 | 22:56 | SW 8 | 10.00 | Overcast | OVC009 | 19 | 16 | 88% | 10 | 30.22 | 1025.0 | ||||||
| 07 | 21:56 | SW 7 | 10.00 | Overcast | OVC009 | 19 | 16 | 23 | 19 | 88% | 11 | 30.22 | 1025.2 | ||||
| 07 | 20:56 | W 10 | 10.00 | Overcast | OVC007 | 19 | 16 | 88% | 8 | 30.22 | 1025.3 | ||||||
| 07 | 19:56 | W 8 | 10.00 | Overcast | OVC007 | 19.9 | 16 | 85% | 11 | 30.23 | 1025.4 | ||||||
| 07 | 18:56 | W 14 | 10.00 | Overcast | OVC007 | 21 | 16 | 81% | 9 | 30.22 | 1025.3 | ||||||
| 07 | 17:56 | W 12 | 10.00 | Overcast | OVC007 | 21.9 | 17.1 | 82% | 11 | 30.22 | 1025.2 | ||||||
| 07 | 16:56 | W 12 | 10.00 | Overcast | OVC007 | 21.9 | 17.1 | 82% | 11 | 30.22 | 1025.1 | ||||||
| 07 | 15:56 | W 14 | 10.00 | Overcast | OVC007 | 23 | 18 | 24.1 | 23 | 81% | 11 | 30.21 | 1024.8 | ||||
| 07 | 14:56 | W 15 | 10.00 | Overcast | OVC009 | 23 | 18 | 81% | 11 | 30.2 | 1024.6 | ||||||
| 07 | 13:56 | W 17 | 10.00 | Overcast | OVC009 | 24.1 | 18 | 77% | 11 | 30.2 | 1024.5 | ||||||
| 07 | 12:56 | W 16 | 10.00 | Overcast | OVC009 | 24.1 | 18 | 77% | 12 | 30.19 | 1024.0 | ||||||
| 07 | 11:56 | W 15 | 10.00 | Overcast | OVC009 | 24.1 | 18 | 77% | 12 | 30.17 | 1023.7 | ||||||
| 07 | 10:56 | W 14 | 10.00 | Overcast | OVC007 | 24.1 | 18 | 77% | 13 | 30.17 | 1023.5 | ||||||
| 07 | 09:56 | W 12 | 10.00 | Overcast | OVC007 | 23 | 18 | 23 | 21 | 81% | 13 | 30.16 | 1023.2 | ||||
| 07 | 08:56 | W 13 | 10.00 | Overcast | OVC007 | 21.9 | 18 | 85% | 11 | 30.15 | 1022.9 | ||||||
| Date | Time (akdt) | Wind (mph) | Vis. (mi.) | Weather | Sky Cond. | Air | Dwpt | Max. | Min. | Relative Humidity | Wind Chill (°F) | Heat Index (°F) | altimeter (in) | sea level (mb) | 1 hr | 3 hr | 6 hr |
| 6 hour | |||||||||||||||||
| Temperature (ºF) | Pressure | Precipitation (in) | |||||||||||||||